Tracking 28126 objects as of 1-Oct-2023
HD Live streaming from Space Station
objects crossing your sky now

DELTA 1 DEB

Track DELTA 1 DEB now!
10-day predictions


NORAD ID: 10842
Int'l Code: 1976-077CN
Perigee: 1,210.6 km
Apogee: 1,659.4 km
Inclination: 102.1 °
Period: 114.4 minutes
Semi major axis: 7805 km
RCS: 0.1889 m2 (medium)
Launch date: July 29, 1976
Source: United States (US)
Launch site: AIR FORCE WESTERN TEST RANGE (AFWTR)

Note: This is SATELLITE DEBRIS
Your satellite tracking list
Your tracking list is empty




NASA's NSSDC Master Catalog

Two Line Element Set (TLE):
1 10842U 76077CN  23273.27569181 -.00000501  00000-0 -22720-2 0  9991
2 10842 102.0887  23.0260 0287437 149.2050 226.7655 12.58815007 29975
Source of the keplerian elements: AFSPC